DateTimeUTC,F1_A11,F1_S11,BsB_S11,BsG_S11,BsR_S11,BbsB_S11,BbsG_S11,BbsR_S11,BaB_A11,BaG_A11,BaR_A11,Tu_S11,T_S11,Uu_S11,U_S11,P_S11,T1_A11
2021-05-29T15:00:00Z,00000200,20000000,,,,,,,-000.17,0000.03,0000.19,18.9,25.1,05.1,03.5,0669.4,31.0
2021-05-29T15:01:00Z,00000200,20000000,,,,,,,0000.28,0000.12,-000.01,18.9,25.1,05.1,03.5,0669.4,31.0
2021-05-29T15:02:00Z,00000200,20000000,,,,,,,-000.49,-000.54,-000.36,18.9,25.1,05.1,03.5,0669.4,31.0
2021-05-29T15:03:00Z,00000200,60000000,,,,,,,0000.53,0001.22,0000.35,18.9,25.2,05.1,03.5,0669.4,31.0
2021-05-29T15:04:00Z,00000200,40000000,0002.71,0001.55,0000.65,0000.40,0000.32,0000.08,0000.88,0000.02,0000.41,19.0,25.0,05.1,03.6,0670.3,31.0
2021-05-29T15:05:00Z,00000200,00000000,0002.10,0001.50,0000.59,0000.53,0000.56,0000.28,0000.72,0000.97,0000.90,19.0,25.0,05.2,03.6,0670.4,31.0
2021-05-29T15:06:00Z,00000200,00000000,0002.63,0001.55,0000.55,-000.23,0000.43,0000.15,0000.58,0000.07,-000.08,19.0,25.0,05.3,03.7,0670.4,31.0
2021-05-29T15:07:00Z,00000200,00000000,0002.32,0001.18,0001.05,0000.47,0000.53,0000.15,0000.44,0000.77,0000.61,19.0,25.0,05.3,03.7,0670.4,31.0
2021-05-29T15:08:00Z,00000200,00000000,0001.79,0001.44,0000.92,0000.26,0000.33,0000.26,0000.75,0000.60,0000.39,19.0,25.0,05.1,03.6,0670.4,31.0
2021-05-29T15:09:00Z,00000200,00000000,0001.97,0001.25,0000.76,-000.34,0000.33,0000.14,0000.47,0000.36,0000.06,19.0,25.0,05.1,03.5,0670.3,31.0
2021-05-29T15:10:00Z,00000200,00000000,0001.86,0001.38,0001.02,0000.10,0000.37,0000.56,0000.62,0000.54,0000.50,19.0,24.9,05.0,03.5,0670.3,31.0
2021-05-29T15:11:00Z,00000200,00000000,0001.71,0001.39,0000.55,0000.11,0000.22,0000.19,0000.47,0000.53,0000.27,19.0,24.9,05.3,03.7,0670.3,31.0
2021-05-29T15:12:00Z,00000200,00000000,0001.61,0001.19,0000.70,0000.18,0000.07,0000.13,0000.77,0000.69,0000.81,19.0,24.9,05.1,03.6,0670.3,31.0
2021-05-29T15:13:00Z,00000200,00000000,0002.14,0001.17,0001.03,0000.35,0000.52,0000.02,0000.81,0000.51,0000.52,19.0,24.9,05.3,03.7,0670.3,31.0
2021-05-29T15:14:00Z,00000200,00000000,0002.63,0001.42,0000.76,0000.19,0000.22,0000.03,0000.42,0000.56,0000.25,19.0,24.9,05.2,03.6,0670.4,31.1
2021-05-29T15:15:00Z,00000200,00000000,0001.68,0001.23,0000.52,-000.04,0000.32,-000.09,0000.37,0000.47,-000.05,19.0,24.9,05.4,03.8,0670.3,31.0
2021-05-29T15:16:00Z,00000200,00000000,0002.24,0001.18,0000.70,-000.42,0000.42,0000.25,0000.71,0000.54,0000.56,19.0,25.0,05.3,03.7,0670.3,31.0
2021-05-29T15:17:00Z,00000200,00000000,0001.37,0001.09,0000.94,0000.55,0000.38,0000.32,0000.74,0000.83,0000.68,19.0,24.9,05.3,03.7,0670.3,31.0
2021-05-29T15:18:00Z,00000200,00000000,0001.81,0001.26,0000.56,0000.57,0000.15,0000.47,0000.16,-000.08,0000.13,19.0,25.0,05.2,03.6,0670.3,31.0
2021-05-29T15:19:00Z,00000200,00000000,0002.49,0001.28,0000.47,0000.10,0000.24,0000.25,0000.95,0001.36,0000.62,19.0,25.0,05.2,03.7,0670.3,31.0
2021-05-29T15:20:00Z,00000200,00000000,0001.54,0001.21,0000.99,0000.30,0000.29,0000.20,0000.63,0000.53,0000.40,19.0,25.0,05.6,03.9,0670.3,31.0
2021-05-29T15:21:00Z,00000200,00000000,0001.90,0001.02,0000.87,0000.95,0000.31,0000.11,0000.46,-000.22,0000.06,19.0,25.0,05.5,03.8,0670.2,31.0
2021-05-29T15:22:00Z,00000200,00000000,0001.22,0001.37,0000.80,0000.48,0000.14,0000.20,0000.42,0000.71,0000.72,19.1,25.0,05.2,03.6,0670.2,31.0
2021-05-29T15:23:00Z,00000200,00000000,0002.08,0001.65,0000.84,-000.12,0000.36,0000.24,0000.82,0000.62,0000.44,19.0,25.0,05.2,03.6,0670.2,31.0
2021-05-29T15:24:00Z,00000200,00000000,0002.32,0001.46,0000.88,0000.37,0000.26,0000.15,0000.52,0000.68,0000.06,19.1,25.0,05.0,03.5,0670.2,31.0
2021-05-29T15:25:00Z,00000200,00000000,0002.12,0001.20,0000.64,-000.14,0000.08,-000.04,0000.64,0000.32,0000.56,19.1,25.0,05.1,03.6,0670.2,31.0
2021-05-29T15:26:00Z,00000200,00000000,0001.66,0001.48,0000.73,0000.22,0000.15,0000.33,0000.63,0000.37,0000.00,19.1,25.0,05.1,03.5,0670.2,31.0
2021-05-29T15:27:00Z,00000200,00000000,0001.82,0001.21,0000.64,0000.05,0000.45,-000.17,0000.25,0000.38,0000.51,19.1,25.0,05.1,03.6,0670.2,31.0
2021-05-29T15:28:00Z,00000200,00000000,0002.08,0001.35,0000.98,0000.68,0000.39,0000.29,0001.22,0001.30,0000.90,19.1,25.0,05.2,03.6,0670.2,31.0
2021-05-29T15:29:00Z,00000200,00000000,0001.42,0001.40,0000.58,0000.13,0000.13,0000.12,0000.73,0000.27,0000.44,19.1,25.0,05.3,03.7,0670.2,31.0
2021-05-29T15:30:00Z,00000200,00000000,0001.60,0001.53,0000.79,0000.19,0000.31,0000.15,0000.14,0000.20,0000.02,19.1,25.0,05.3,03.7,0670.1,31.0
2021-05-29T15:31:00Z,00000200,00000000,0001.97,0001.51,0000.82,0000.62,0000.25,0000.53,0000.77,0000.83,0000.69,19.1,25.0,05.1,03.5,0670.1,31.0
2021-05-29T15:32:00Z,00000200,00000000,0001.53,0001.31,0000.92,-000.17,0000.33,0000.02,0000.44,-000.09,0000.08,19.1,25.0,05.2,03.6,0670.1,31.0
2021-05-29T15:33:00Z,00000200,00000000,0002.47,0001.36,0000.69,0000.50,0000.31,0000.19,0000.34,0000.85,0000.56,19.1,25.0,05.1,03.5,0670.1,31.0
2021-05-29T15:34:00Z,00000200,00000000,0001.80,0001.64,0000.94,0000.08,0000.22,0000.05,0001.17,0000.59,0000.53,19.1,25.0,05.1,03.6,0670.1,31.0
2021-05-29T15:35:00Z,00000200,00000000,0002.33,0001.03,0000.60,0000.37,0000.31,0000.18,0000.41,0000.76,0000.22,19.1,25.0,05.4,03.8,0670.1,31.0
2021-05-29T15:36:00Z,00000200,00000000,0001.90,0001.08,0000.75,0000.51,0000.10,0000.08,0000.89,0000.45,0000.42,19.1,25.0,05.3,03.7,0670.0,31.0
2021-05-29T15:37:00Z,00000200,00000000,0001.93,0001.34,0000.79,0000.27,0000.21,-000.14,0000.24,0000.34,0000.30,19.1,25.0,05.4,03.8,0670.0,31.0
2021-05-29T15:38:00Z,00000200,00000000,0001.67,0001.50,0001.03,0000.60,0000.35,-000.01,0000.73,0000.74,0000.56,19.1,25.0,05.3,03.7,0670.0,31.0
2021-05-29T15:39:00Z,00000200,00000000,0001.90,0001.39,0000.74,-000.10,0000.39,0000.05,0000.69,0000.65,0000.21,19.1,25.0,05.5,03.9,0670.0,31.0
2021-05-29T15:40:00Z,00000200,00000000,0001.77,0001.63,0000.61,0000.22,0000.22,0000.04,0000.73,0000.79,0000.70,19.1,25.0,05.4,03.8,0670.0,31.0
2021-05-29T15:41:00Z,00000200,00000000,0001.39,0001.37,0000.77,0000.04,0000.22,0000.27,0000.96,0000.58,0000.33,19.1,25.0,05.7,04.0,0670.0,31.0
2021-05-29T15:42:00Z,00000200,00000000,0001.60,0001.14,0000.67,0000.46,0000.12,0000.08,0000.29,0000.35,0000.58,19.1,25.0,05.8,04.0,0670.0,31.0
2021-05-29T15:43:00Z,00000200,00000000,0001.44,0001.50,0000.70,0000.23,0000.40,0000.17,0000.44,0000.59,0000.12,19.1,25.0,05.5,03.9,0670.0,31.0
2021-05-29T15:44:00Z,00000200,00000000,0001.17,0001.31,0000.81,0000.51,0000.22,0000.20,0000.79,0000.46,0000.55,19.1,25.0,05.5,03.9,0670.0,31.0
2021-05-29T15:45:00Z,00000200,00000000,0001.68,0001.36,0000.82,-000.05,0000.45,0000.30,0000.57,0000.75,0000.25,19.1,25.0,05.6,03.9,0670.1,31.0
2021-05-29T15:46:00Z,00000200,00000000,0001.99,0001.65,0000.97,0000.79,0000.14,0000.28,0000.49,0000.56,0000.66,19.1,25.0,05.7,04.0,0670.0,31.0
2021-05-29T15:47:00Z,00000200,00000000,0001.62,0001.47,0000.75,0000.44,0000.44,0000.27,0000.73,0000.60,0000.41,19.1,25.0,05.6,03.9,0670.0,31.0
2021-05-29T15:48:00Z,00000200,00000000,0001.89,0001.10,0000.60,0000.43,0000.24,0000.23,0000.49,0000.07,-000.04,19.1,25.0,05.6,03.9,0670.0,31.0
2021-05-29T15:49:00Z,00000200,00000000,0001.89,0001.42,0000.83,0000.16,0000.46,0000.11,0000.50,0000.47,0000.27,19.1,25.0,05.6,03.9,0670.0,31.0
2021-05-29T15:50:00Z,00000200,00000000,0001.31,0001.43,0001.01,0000.44,0000.52,0000.20,0000.42,0000.74,0001.06,19.1,25.0,05.6,03.9,0669.9,31.0
2021-05-29T15:51:00Z,00000200,00000000,0001.68,0001.45,0000.65,0000.56,0000.44,0000.38,0000.86,0000.35,0000.11,19.1,25.0,05.6,03.9,0669.9,31.0
2021-05-29T15:52:00Z,00000200,00000000,0001.67,0001.55,0000.91,0000.34,0000.29,0000.37,0000.44,0000.85,0000.31,19.1,25.0,05.7,04.0,0669.9,31.0
2021-05-29T15:53:00Z,00000200,00000000,0001.86,0001.49,0000.83,-000.24,0000.55,-000.14,0000.80,0000.70,0000.42,19.1,25.0,05.8,04.1,0670.0,31.0
2021-05-29T15:54:00Z,00000200,00000000,0002.34,0001.12,0000.89,0000.29,0000.38,0000.25,0000.66,0000.74,0000.72,19.1,25.0,05.8,04.1,0669.9,31.0
2021-05-29T15:55:00Z,00000200,00000000,0001.25,0001.23,0000.62,0000.33,0000.15,0000.21,0000.22,-000.00,0000.35,19.1,25.0,05.8,04.1,0669.9,31.0
2021-05-29T15:56:00Z,00000200,00000000,0001.11,0001.06,0000.72,0000.63,0000.36,0000.14,0000.88,0000.88,0000.20,19.1,25.0,05.8,04.1,0669.9,31.0
2021-05-29T15:57:00Z,00000200,40000000,,,,,,,-000.17,-000.55,-000.20,19.2,25.0,06.2,04.3,0670.0,31.0
2021-05-29T15:58:00Z,00000200,60000000,,,,,,,0000.37,0000.32,0000.09,19.0,25.1,05.5,03.8,0668.9,31.1
2021-05-29T15:59:00Z,00000200,20000000,,,,,,,0000.14,0000.42,0000.48,19.0,25.2,05.7,03.9,0669.0,31.0
